Anchialos, Greece

6:53 PM EEST on April 19, 2018 (GMT +0300)
Almiros Air Base

Weather History for LGBL - May, 2013

Change the Weather History Date:

Thursday, May 23, 2013

  Actual Average Record
Temperature  
Mean Temperature 79 °F -  
Max Temperature 87 °F - - ()
Min Temperature 69 °F - - ()
Cooling Degree Days 14    
Growing Degree Days 29 (Base 50)    
Moisture  
Dew Point 44 °F    
Average Humidity 28    
Maximum Humidity 41    
Minimum Humidity 20    
Precipitation  
Precipitation 0.00 in - - ()
Sea Level Pressure  
Sea Level Pressure 29.53 in    
Wind  
Wind Speed 13 mph ()    
Max Wind Speed 29 mph    
Max Gust Speed 36 mph    
Visibility 6.2 miles    
Events      
T = Trace of Precipitation, MM = Missing Value Source: Averaged Metar Reports

Daily Weather History Graph

Daily Weather History Graph

Search for Another Location

Airport or City:

Trip Planner

Search our weather history database for the weather conditions in past years. The results will help you decide how hot, cold, wet, or windy it might be!

Date:

Astronomy

May. 23, 2013 Rise Set
Actual Time 6:09 AM EEST 8:42 PM EEST
Civil Twilight 5:38 AM EEST 9:13 PM EEST
Nautical Twilight 5:00 AM EEST 9:51 PM EEST
Astronomical Twilight 4:17 AM EEST 10:34 PM EEST
Moon 6:53 PM EEST (5/23) 4:39 AM EEST (5/23)
Length of Visible Light 15h 34m
Length of Day
14h 33m
Waxing Gibbous, 95% of the Moon is Illuminated
May 23
Waxing Gibbous
May 25
Full
May 31
Last Quarter
Jun 8
New
Jun 16
First Quarter

Hourly Weather History & Observations

Time (EEST) Temp. Dew Point Humidity Pressure Visibility Wind Dir Wind Speed Gust Speed Precip Events Conditions
12:50 AM 78.8 °F 51.8 °F 39% 29.59 in 6.2 mi East 9.2 mph - N/A   Partly Cloudy
1:50 AM 77.0 °F 50.0 °F 39% 29.56 in 6.2 mi SSE 13.8 mph - N/A   Partly Cloudy
2:50 AM 77.0 °F 50.0 °F 39% 29.53 in 6.2 mi SE 11.5 mph - N/A   Partly Cloudy
3:50 AM 77.0 °F 51.8 °F 41% 29.47 in 6.2 mi ESE 11.5 mph - N/A   Partly Cloudy
4:50 AM 77.0 °F 51.8 °F 41% 29.47 in 6.2 mi ESE 11.5 mph - N/A   Partly Cloudy
5:50 AM 75.2 °F 48.2 °F 38% 29.50 in - SW 5.8 mph - N/A   Clear
6:20 AM 75.2 °F 48.2 °F 38% 29.47 in - SSW 11.5 mph - N/A   Clear
6:50 AM 77.0 °F 46.4 °F 34% 29.47 in - SW 13.8 mph - N/A   Clear
7:20 AM 77.0 °F 42.8 °F 29% 29.50 in - SW 6.9 mph - N/A   Clear
7:50 AM 77.0 °F 37.4 °F 24% 29.50 in - West 11.5 mph - N/A   Clear
8:20 AM 78.8 °F 39.2 °F 24% 29.50 in - West 11.5 mph - N/A   Clear
8:50 AM 80.6 °F 37.4 °F 21% 29.50 in - SW 13.8 mph - N/A   Clear
9:20 AM 80.6 °F 39.2 °F 23% 29.47 in - ENE 10.4 mph - N/A   Clear
9:50 AM 82.4 °F 39.2 °F 21% 29.47 in 6.2 mi NNE 9.2 mph - N/A   Partly Cloudy
10:20 AM 82.4 °F 39.2 °F 21% 29.47 in 6.2 mi East 12.7 mph - N/A   Partly Cloudy
10:50 AM 86.0 °F 41.0 °F 20% 29.50 in 6.2 mi SSW 10.4 mph - N/A   Partly Cloudy
11:20 AM 86.0 °F 41.0 °F 20% 29.47 in 6.2 mi West 11.5 mph 23.0 mph N/A   Partly Cloudy
11:50 AM 86.0 °F 41.0 °F 20% 29.50 in 6.2 mi Variable 12.7 mph 29.9 mph N/A   Partly Cloudy
12:20 PM 87.8 °F 42.8 °F 21% 29.50 in 6.2 mi West 17.3 mph 34.5 mph N/A   Partly Cloudy
12:50 PM 82.4 °F 46.4 °F 28% 29.53 in 6.2 mi West 17.3 mph 28.8 mph N/A   Partly Cloudy
1:20 PM 84.2 °F 44.6 °F 25% 29.53 in 6.2 mi West 18.4 mph 32.2 mph N/A   Partly Cloudy
1:50 PM 82.4 °F 44.6 °F 26% 29.56 in 6.2 mi SW 23.0 mph 34.5 mph N/A   Partly Cloudy
2:20 PM 86.0 °F 46.4 °F 25% 29.53 in 6.2 mi SW 20.7 mph 32.2 mph N/A   Partly Cloudy
2:50 PM 86.0 °F 46.4 °F 25% 29.53 in 6.2 mi SW 24.2 mph 35.7 mph N/A   Partly Cloudy
3:20 PM 86.0 °F 44.6 °F 23% 29.53 in 6.2 mi WSW 28.8 mph - N/A   Partly Cloudy
3:50 PM 86.0 °F 46.4 °F 25% 29.53 in 6.2 mi WSW 28.8 mph - N/A   Partly Cloudy
4:20 PM 86.0 °F 44.6 °F 23% 29.53 in 6.2 mi WSW 21.9 mph 33.4 mph N/A   Partly Cloudy
4:50 PM 84.2 °F 46.4 °F 27% 29.53 in 6.2 mi WSW 28.8 mph - N/A   Partly Cloudy
5:20 PM 84.2 °F 44.6 °F 25% 29.53 in 6.2 mi WSW 28.8 mph - N/A   Partly Cloudy
5:50 PM 84.2 °F 44.6 °F 25% 29.56 in 6.2 mi WSW 20.7 mph 32.2 mph N/A   Partly Cloudy
6:20 PM 82.4 °F 44.6 °F 26% 29.56 in 6.2 mi WSW 25.3 mph - N/A   Partly Cloudy
6:50 PM 82.4 °F 44.6 °F 26% 29.56 in 6.2 mi WSW 20.7 mph 32.2 mph N/A   Partly Cloudy
7:20 PM 80.6 °F 44.6 °F 28% 29.56 in 6.2 mi WSW 17.3 mph 28.8 mph N/A   Partly Cloudy
7:50 PM 78.8 °F 46.4 °F 32% 29.59 in 6.2 mi West 17.3 mph - N/A   Partly Cloudy
8:20 PM 77.0 °F 46.4 °F 34% 29.59 in 6.2 mi West 15.0 mph - N/A   Partly Cloudy
8:50 PM 75.2 °F 44.6 °F 34% 29.59 in 6.2 mi WSW 18.4 mph 29.9 mph N/A   Scattered Clouds
9:50 PM 73.4 °F 42.8 °F 33% 29.59 in 6.2 mi West 15.0 mph 26.5 mph N/A   Partly Cloudy
10:50 PM 71.6 °F 41.0 °F 33% 29.62 in 6.2 mi WSW 16.1 mph 27.6 mph N/A   Partly Cloudy
11:50 PM 69.8 °F 39.2 °F 33% 29.62 in 6.2 mi West 15.0 mph 26.5 mph N/A   Partly Cloudy